Regional Weather Roundup
Issued by NWS Glasgow, MT

Home | Current Version | Previous Version | Text Only | Print | Product List | Glossary On
Versions: 1 2 3 4 5 6 7 8 9 10 11 12 13 14 15 16 17 18 19 20 21 22 23 24 25 26 27 28
000
ASUS45 KGGW 231015
RWRGGW
HOURLY REGIONAL WEATHER ROUNDUP FOR NORTHEAST MONTANA
NATIONAL WEATHER SERVICE GLASGOW MONTANA
400 AM MDT WED AUG 23 2017

NOTE: "FAIR" INDICATES FEW OR NO CLOUDS BELOW 12,000 FEET WITH NO
SIGNIFICANT WEATHER AND/OR OBSTRUCTIONS TO VISISBILITY.

NORTHEAST MONTANA


CITY           SKY/WX    TMP DP  RH WIND       PRES   REMARKS
GLASGOW        CLEAR     60  36  40 E10       30.00F
PLENTYWOOD       N/A     61  36  39 S12G21      N/A
WOLF POINT     CLEAR     57  38  48 CALM      30.02F
JORDAN           N/A     60  37  42 E6        30.01F
WINNETT          N/A     49  32  52 S1          N/A
SIDNEY         CLEAR     54  41  61 SW6       30.05F
GLENDIVE       CLEAR     62  42  47 S3        30.06F
MALTA            N/A     55  40  56 E1          N/A
SCOBEY           N/A     57  35  43 CALM      30.01F

FORT PECK REPORTS


CITY           SKY/WX    TMP DP  RH WIND       PRES   REMARKS
FORT PECK        N/A     65  44  46 E7          N/A
THE PINES        N/A     66  41  40 S3          N/A

SOUTHEAST MONTANA


CITY           SKY/WX    TMP DP  RH WIND       PRES   REMARKS
BILLINGS       CLEAR     62  38  40 W9        30.04S
MILES CITY     CLEAR     60  39  45 NE5       30.02F
BAKER          CLEAR     53  43  68 E10       30.09F
LIVINGSTON     CLEAR     49  34  56 NW6       30.13S

CENTRAL MONTANA


CITY           SKY/WX    TMP DP  RH WIND       PRES   REMARKS
HAVRE          CLEAR     58  40  51 E6        29.95F
LEWISTOWN      CLEAR     53  35  50 SE7       30.05F
GREAT FALLS    CLEAR     55  32  41 SW9       30.02S
CUT BANK       FAIR      54  38  54 NW5       30.02F
HELENA         MOCLDY    62  41  46 CALM      30.08F
BUTTE          CLEAR     48  33  56 SE5       30.21F
BOZEMAN        CLEAR     49  41  74 E6        30.13S

WESTERN MONTANA


CITY           SKY/WX    TMP DP  RH WIND       PRES   REMARKS
MISSOULA       MOCLDY    56  41  57 CALM      30.06S HAZE
KALISPELL      NOT AVBL

NORTH DAKOTA


CITY           SKY/WX    TMP DP  RH WIND       PRES   REMARKS
WILLISTON      CLEAR     57  42  57 SW6       30.04F
DICKINSON      CLEAR     52  42  69 S9        30.08F
MINOT          CLEAR     59  46  62 SE3       30.03F
BISMARCK       CLEAR     50  47  89 CALM      30.10F

SOUTHERN SASKATCHEWAN


CITY           SKY/WX    TMP DP  RH WIND       PRES   REMARKS
REGINA         CLEAR     50  41  71 SE9       29.97F
MOOSE JAW      CLEAR     63  45  51 S9        29.98
ESTEVAN        PTCLDY    46  43  87 CALM      30.02F
SWIFT CURRENT  CLEAR     61  39  44 S12       29.98F





USA.gov is the U.S. government's official web portal to all federal, state and local government web resources and services.